Location: Dal�� Lhota
(48.7500°N, 14.0167°E)
Time: 09:03:37
(UTC+00:00)

Explorer 7 - Pass Details

Date: 06 August 2021
Orbit: 484 x 676 km, 50.3° (Epoch: 21 September)

Event Time Altitude Azimuth Distance (km) Brightness Sun altitude
Rises 03:56:53 0° 258° (WSW) 2,549 9.6 1.0°
Reaches altitude 10° 03:59:02 10° 259° (W) 1,679 8.7 1.3°
Maximum altitude 04:02:49 82° 347° (NNW) 511 6.8 1.9°
Drops below altitude 10° 04:06:47 10° 76° (ENE) 1,752 11.7 2.5°
Sets 04:09:03 0° 77° (ENE) 2,670 12.7 2.8°
